TimeCST,TemperatureF,Dew PointF,Humidity,Sea Level PressureIn,VisibilityMPH,Wind Direction,Wind SpeedMPH,Gust SpeedMPH,PrecipitationIn,Events,Conditions,WindDirDegrees,DateUTC
12:15 AM,-9.4,-14.8,77,30.37,-9999.0,SE,3.5,-,N/A,,Clear,130,2013-02-21 06:15:00
12:35 AM,-9.4,-14.8,77,30.37,-9999.0,ESE,3.5,-,N/A,,Clear,120,2013-02-21 06:35:00
12:55 AM,-9.4,-14.8,77,30.37,-9999.0,SE,3.5,-,N/A,,Unknown,130,2013-02-21 06:55:00
1:15 AM,-11.2,-16.6,77,30.37,-9999.0,ESE,5.8,-,N/A,,Clear,120,2013-02-21 07:15:00
1:35 AM,-9.4,-14.8,77,30.37,-9999.0,ESE,4.6,-,N/A,,Clear,110,2013-02-21 07:35:00
1:55 AM,-9.4,-14.8,77,30.37,-9999.0,ESE,4.6,-,N/A,,Unknown,110,2013-02-21 07:55:00
2:15 AM,-9.4,-14.8,77,30.38,-9999.0,ESE,4.6,-,N/A,,Clear,120,2013-02-21 08:15:00
2:35 AM,-9.4,-14.8,77,30.38,-9999.0,SE,5.8,-,N/A,,Clear,130,2013-02-21 08:35:00
2:55 AM,-9.4,-14.8,77,30.38,-9999.0,SE,4.6,-,N/A,,Clear,130,2013-02-21 08:55:00
3:15 AM,-9.4,-14.8,77,30.37,-9999.0,ESE,5.8,-,N/A,,Clear,120,2013-02-21 09:15:00
3:35 AM,-9.4,-14.8,77,30.37,-9999.0,ESE,5.8,-,N/A,,Clear,120,2013-02-21 09:35:00
3:55 AM,-5.8,-9.4,84,30.37,-9999.0,ESE,6.9,-,N/A,,Clear,120,2013-02-21 09:55:00
4:15 AM,-4.0,-9.4,78,30.36,-9999.0,ESE,5.8,-,N/A,,Clear,120,2013-02-21 10:15:00
4:35 AM,-4.0,-7.6,85,30.36,-9999.0,ESE,4.6,-,N/A,,Unknown,110,2013-02-21 10:35:00
4:55 AM,-4.0,-9.4,78,30.35,-9999.0,East,5.8,-,N/A,,Clear,100,2013-02-21 10:55:00
5:15 AM,-4.0,-9.4,78,30.33,-9999.0,East,8.1,-,N/A,,Clear,100,2013-02-21 11:15:00
5:35 AM,-4.0,-7.6,85,30.32,-9999.0,East,6.9,-,N/A,,Unknown,90,2013-02-21 11:35:00
5:55 AM,-2.2,-7.6,78,30.31,-9999.0,East,5.8,-,N/A,,Clear,100,2013-02-21 11:55:00
6:15 AM,-4.0,-7.6,85,30.31,-9999.0,East,5.8,-,N/A,,Clear,100,2013-02-21 12:15:00
6:35 AM,-2.2,-7.6,78,30.31,-9999.0,East,6.9,-,N/A,,Clear,90,2013-02-21 12:35:00
6:55 AM,-2.2,-7.6,78,30.33,-9999.0,SE,5.8,-,N/A,,Clear,130,2013-02-21 12:55:00
7:15 AM,-0.4,-5.8,78,30.36,-9999.0,SE,8.1,-,N/A,,Clear,130,2013-02-21 13:15:00
7:35 AM,-0.4,-7.6,72,30.38,-9999.0,SE,8.1,-,N/A,,Clear,140,2013-02-21 13:35:00
7:55 AM,-0.4,-5.8,78,30.39,-9999.0,SE,8.1,-,N/A,,Clear,140,2013-02-21 13:55:00
8:15 AM,-0.4,-5.8,78,30.38,-9999.0,SE,5.8,-,N/A,,Clear,140,2013-02-21 14:15:00
8:35 AM,-0.4,-5.8,78,30.37,-9999.0,ESE,5.8,-,N/A,,Clear,120,2013-02-21 14:35:00
8:55 AM,1.4,-5.8,72,30.36,-9999.0,East,5.8,-,N/A,,Clear,100,2013-02-21 14:55:00
9:15 AM,1.4,-5.8,72,30.35,-9999.0,ESE,4.6,-,N/A,,Clear,110,2013-02-21 15:15:00
9:35 AM,5.0,-4.0,66,30.34,10.0,East,6.9,-,N/A,,Clear,100,2013-02-21 15:35:00
9:55 AM,6.8,-0.4,72,30.33,10.0,ESE,6.9,-,N/A,,Clear,110,2013-02-21 15:55:00
10:15 AM,8.6,-0.4,67,30.34,10.0,ESE,6.9,-,N/A,,Clear,120,2013-02-21 16:15:00
10:35 AM,10.4,1.4,67,30.35,10.0,SE,10.4,-,N/A,,Clear,130,2013-02-21 16:35:00
10:55 AM,10.4,1.4,67,30.35,10.0,SE,8.1,-,N/A,,Clear,140,2013-02-21 16:55:00
11:15 AM,12.2,3.2,67,30.35,10.0,SE,10.4,-,N/A,,Scattered Clouds,130,2013-02-21 17:15:00
11:35 AM,12.2,3.2,67,30.35,10.0,SE,11.5,-,N/A,,Scattered Clouds,130,2013-02-21 17:35:00
11:55 AM,14.0,3.2,62,30.34,10.0,ESE,11.5,-,N/A,,Scattered Clouds,120,2013-02-21 17:55:00
12:15 PM,14.0,5.0,67,30.34,10.0,SE,10.4,-,N/A,,Scattered Clouds,130,2013-02-21 18:15:00
12:35 PM,15.8,5.0,62,30.32,10.0,SE,11.5,-,N/A,,Clear,130,2013-02-21 18:35:00
12:55 PM,15.8,5.0,62,30.31,10.0,SE,9.2,-,N/A,,Clear,130,2013-02-21 18:55:00
1:15 PM,17.6,6.8,63,30.31,10.0,SE,9.2,-,N/A,,Clear,130,2013-02-21 19:15:00
1:35 PM,17.6,6.8,63,30.31,10.0,SE,8.1,-,N/A,,Clear,130,2013-02-21 19:35:00
1:55 PM,17.6,6.8,63,30.30,10.0,SE,6.9,-,N/A,,Clear,140,2013-02-21 19:55:00
2:15 PM,17.6,8.6,68,30.28,10.0,SE,5.8,-,N/A,,Scattered Clouds,130,2013-02-21 20:15:00
2:35 PM,17.6,8.6,68,30.28,10.0,ESE,6.9,-,N/A,,Scattered Clouds,120,2013-02-21 20:35:00
2:55 PM,19.4,8.6,63,30.27,10.0,ESE,6.9,-,N/A,,Clear,120,2013-02-21 20:55:00
3:15 PM,19.4,8.6,63,30.26,10.0,ESE,6.9,-,N/A,,Clear,120,2013-02-21 21:15:00
3:35 PM,19.4,8.6,63,30.25,10.0,ESE,4.6,-,N/A,,Clear,120,2013-02-21 21:35:00
3:55 PM,19.4,8.6,63,30.25,10.0,East,5.8,-,N/A,,Clear,100,2013-02-21 21:55:00
4:15 PM,19.4,8.6,63,30.24,10.0,East,5.8,-,N/A,,Clear,90,2013-02-21 22:15:00
4:35 PM,19.4,8.6,63,30.24,10.0,East,3.5,-,N/A,,Clear,90,2013-02-21 22:35:00
4:55 PM,17.6,8.6,68,30.24,10.0,Calm,Calm,-,N/A,,Scattered Clouds,0,2013-02-21 22:55:00
5:15 PM,17.6,8.6,68,30.24,10.0,Calm,Calm,-,N/A,,Mostly Cloudy,0,2013-02-21 23:15:00
5:35 PM,17.6,8.6,68,30.24,10.0,Calm,Calm,-,N/A,,Mostly Cloudy,0,2013-02-21 23:35:00
5:55 PM,17.6,8.6,68,30.25,10.0,Calm,Calm,-,N/A,,Overcast,0,2013-02-21 23:55:00
6:15 PM,17.6,8.6,68,30.24,10.0,Calm,Calm,-,N/A,,Overcast,0,2013-02-22 00:15:00
6:35 PM,17.6,8.6,68,30.23,10.0,Calm,Calm,-,N/A,,Overcast,0,2013-02-22 00:35:00
6:55 PM,17.6,8.6,68,30.23,10.0,Calm,Calm,-,N/A,,Scattered Clouds,0,2013-02-22 00:55:00
7:15 PM,15.8,8.6,73,30.22,10.0,NNE,3.5,-,N/A,,Clear,30,2013-02-22 01:15:00
7:35 PM,15.8,8.6,73,30.21,10.0,NNE,5.8,-,N/A,,Clear,20,2013-02-22 01:35:00
7:55 PM,15.8,8.6,73,30.21,10.0,NNE,4.6,-,N/A,,Scattered Clouds,30,2013-02-22 01:55:00
8:15 PM,15.8,6.8,68,30.20,10.0,NE,5.8,-,N/A,,Clear,40,2013-02-22 02:15:00
8:35 PM,15.8,6.8,68,30.19,10.0,NE,5.8,-,N/A,,Clear,40,2013-02-22 02:35:00
8:55 PM,15.8,6.8,68,30.19,10.0,NNE,5.8,-,N/A,,Clear,30,2013-02-22 02:55:00
9:15 PM,17.6,6.8,63,30.18,10.0,NNE,5.8,-,N/A,,Scattered Clouds,30,2013-02-22 03:15:00
9:35 PM,15.8,6.8,68,30.18,10.0,NNE,4.6,-,N/A,,Scattered Clouds,20,2013-02-22 03:35:00
9:55 PM,15.8,8.6,73,30.17,10.0,NNE,5.8,-,N/A,,Scattered Clouds,20,2013-02-22 03:55:00
10:15 PM,15.8,6.8,68,30.16,10.0,NNE,5.8,-,N/A,,Scattered Clouds,20,2013-02-22 04:15:00
10:55 PM,15.8,6.8,68,30.15,10.0,NNE,5.8,-,N/A,,Scattered Clouds,20,2013-02-22 04:55:00
11:15 PM,14.0,6.8,73,30.14,10.0,North,5.8,-,N/A,,Scattered Clouds,10,2013-02-22 05:15:00
11:35 PM,14.0,8.6,79,30.13,10.0,North,5.8,-,N/A,,Scattered Clouds,10,2013-02-22 05:35:00
11:55 PM,15.8,8.6,73,30.13,10.0,North,4.6,-,N/A,,Clear,360,2013-02-22 05:55:00